Terminal Aerodrome Forecast
Issued by NWS

Home | Current Version | Previous Version | Text Only | Print | Product List | Glossary On
Versions: 1 2 3 4 5 6 7 8 9 10 11 12 13 14 15 16 17 18 19 20 21 22 23 24 25 26 27 28 29 30 31 32 33 34
000
FTAK31 PANC 312348
TAFAAQ
TAF
PAAQ 312348Z 0100/0124 VRB04KT P6SM BKN060
     FM011200 VRB03KT P6SM BKN035
     FM012100 18006KT P6SM SCT035 BKN060=

USA.gov is the U.S. government's official web portal to all federal, state and local government web resources and services.